DELTA 1 DEB, 12528

Orbit data source: Space-Track

DELTA 1 DEB, 12528 is space debris in SSO originally from a launch on Thu, 29 Jul 1976 UTC launched from the Air Force Western Test Range (AFWTR). Debris objects in space refer to the collection of defunct objects orbiting the Earth. Examples of debris include non-operational satellites, rocket bodies, and fragments generated from explosions, collisions, or faulty payload assembly.

Loading next visibility...
Identifier
12528, 1976-077DH
Orbit
SSO
Country
Flag of USUS
Related business
Manufacturer
Unknown
Mission
Spacecraft
Bus & Motor
Unknown
Mass
Unknown
Launch date (UTC)
1976-07-29 (49 years ago)
Launch vehicle
Unknown
Launch site
Air Force Western Test Range (AFWTR)
Object type
Payload
Rocket body
Debris
Shape & HBR
Unknown shape, 0.4 m
Radar Cross Section
Medium (>0.1 m² and <1 m²)

Expand to show TLE details & history
Last TLE update: 8 hours ago

TLE from 8 hours ago
0 DELTA 1 DEB
1 12528U 76077DH  25352.95850738 -.00000032  00000-0  12596-3 0  9999
2 12528 102.5457 332.4647 0077771 252.5403 175.5695 12.27217442149074
Epoch: 2025-12-18T23:00Z
TLE epoch observation values (Epoch: 2025-12-18T23:00:15.037Z)
Latitude
65.06586°
Longitude
-128.85202°
Altitude
1,633.854 km
Speed
7.033 km/s
True Right ascension
20h 16m 04s
True Declination
64° 56' 55"
Sunlit
Object was in daylight at epoch
Visualization orbit readout
Latitude
Unknown
Longitude
Unknown
Altitude
Unknown
Speed
Unknown
Apparent Right ascension
Unknown
Apparent Declination
Unknown
Sunlit
N/A
Visualization observer readout
Local Sidereal Time
06:10:29
Azimuth
Unknown
Elevation
Unknown
Doppler factor
Unknown
Orbital elements
Apogee altitude
1,620.611 km
Perigee altitude
1,497.157 km
Semi-major axis
7,937.021 km
Eccentricity
0.00778
Inclination
102.5457°
RAAN
332.4647°
Arg. of periapsis
252.5403°
True anomaly
175.63768°
Mean anomaly
175.5695°
Eccentric anomaly
175.60366°
Mean motion
3.06942 °/min
Orbital period
117.29 mins
BSTAR
0.00012596
Loading maneuver chart data...
Computing Atmospheric mass density...
Loading historical data...
Loading historical data...
Loading historical data...
Loading historical data...
Loading historical data...
Loading historical data...
Loading historical data...

Documentation

Showing up to 5 results
|